Time,TemperatureF,DewpointF,PressureIn,WindDirection,WindDirectionDegrees,WindSpeedMPH,WindSpeedGustMPH,Humidity,HourlyPrecipIn,Conditions,Clouds,dailyrainin,SoftwareType,DateUTC
2014-09-21 00:04:00,55.9,55.4,29.94,WSW,248,2.5,5.8,98,0.00,,,0.00,meteobridge,2014-09-21 04:04:00,
2014-09-21 00:09:00,55.6,55.0,29.94,NW,315,1.3,2.0,98,0.00,,,0.00,meteobridge,2014-09-21 04:09:00,
2014-09-21 00:14:00,55.8,55.2,29.94,NW,315,1.6,2.0,98,0.00,,,0.00,meteobridge,2014-09-21 04:14:00,
2014-09-21 00:19:00,55.0,54.1,29.97,NW,315,0.0,0.0,97,0.00,,,0.00,meteobridge,2014-09-21 04:19:00,
2014-09-21 00:25:00,54.1,53.1,29.97,NW,315,0.0,0.0,96,0.00,,,0.00,meteobridge,2014-09-21 04:25:00,
2014-09-21 00:30:00,53.4,52.3,29.94,NW,315,0.0,0.0,96,0.00,,,0.00,meteobridge,2014-09-21 04:30:00,
2014-09-21 00:35:00,52.9,51.8,29.94,NW,315,0.0,0.0,96,0.00,,,0.00,meteobridge,2014-09-21 04:35:00,
2014-09-21 00:40:00,52.7,51.6,29.94,SSW,202,0.0,0.0,96,0.00,,,0.00,meteobridge,2014-09-21 04:40:00,
2014-09-21 00:45:00,52.5,51.4,29.94,SSW,202,0.0,0.0,96,0.00,,,0.00,meteobridge,2014-09-21 04:45:00,
2014-09-21 00:50:00,52.5,52.0,30.00,SSW,202,0.0,1.1,98,0.00,,,0.00,meteobridge,2014-09-21 04:50:00,
2014-09-21 00:55:00,52.7,52.2,30.00,SSW,202,0.0,0.0,98,0.00,,,0.00,meteobridge,2014-09-21 04:55:00,
2014-09-21 01:00:00,52.7,52.2,29.97,SW,225,1.6,2.9,98,0.00,,,0.00,meteobridge,2014-09-21 05:00:00,
2014-09-21 01:06:00,53.1,52.5,29.97,SW,225,1.3,1.3,98,0.00,,,0.00,meteobridge,2014-09-21 05:06:00,
2014-09-21 01:11:00,52.5,52.0,29.97,SW,225,0.0,0.0,98,0.00,,,0.00,meteobridge,2014-09-21 05:11:00,
2014-09-21 01:16:00,52.3,51.8,29.97,WSW,248,1.3,1.3,98,0.00,,,0.00,meteobridge,2014-09-21 05:16:00,
2014-09-21 01:21:00,53.1,52.5,29.97,WSW,248,2.5,2.5,98,0.00,,,0.00,meteobridge,2014-09-21 05:21:00,
2014-09-21 01:26:00,53.1,52.5,29.97,WSW,248,1.1,2.5,98,0.00,,,0.00,meteobridge,2014-09-21 05:26:00,
2014-09-21 01:31:00,53.6,53.1,29.94,WSW,248,2.5,2.5,98,0.00,,,0.00,meteobridge,2014-09-21 05:31:00,
2014-09-21 01:36:00,54.0,53.4,29.94,WSW,248,2.7,3.8,98,0.00,,,0.00,meteobridge,2014-09-21 05:36:00,
2014-09-21 01:41:00,54.3,53.8,29.94,West,270,4.0,5.6,98,0.00,,,0.00,meteobridge,2014-09-21 05:41:00,
2014-09-21 01:46:00,54.7,54.1,29.94,WSW,248,3.6,4.3,98,0.00,,,0.00,meteobridge,2014-09-21 05:46:00,
2014-09-21 01:51:00,55.2,54.7,29.94,West,270,4.9,5.6,98,0.00,,,0.00,meteobridge,2014-09-21 05:51:00,
2014-09-21 01:56:00,55.2,54.7,29.94,WSW,248,4.5,4.9,98,0.00,,,0.00,meteobridge,2014-09-21 05:56:00,
2014-09-21 02:01:00,55.2,54.7,29.94,WSW,248,3.1,4.0,98,0.00,,,0.00,meteobridge,2014-09-21 06:01:00,
2014-09-21 02:06:00,54.7,54.1,29.94,WSW,248,2.5,3.4,98,0.00,,,0.00,meteobridge,2014-09-21 06:06:00,
2014-09-21 02:11:00,54.5,54.0,29.94,WNW,292,2.5,3.1,98,0.00,,,0.00,meteobridge,2014-09-21 06:11:00,
2014-09-21 02:16:00,54.1,53.6,29.94,WNW,292,1.3,2.2,98,0.00,,,0.00,meteobridge,2014-09-21 06:16:00,
2014-09-21 02:21:00,53.4,52.9,29.94,WNW,292,0.0,1.6,98,0.00,,,0.00,meteobridge,2014-09-21 06:21:00,
2014-09-21 02:26:00,53.2,52.7,29.94,WNW,292,0.0,0.0,98,0.00,,,0.00,meteobridge,2014-09-21 06:26:00,
2014-09-21 02:31:00,53.2,52.7,29.91,WNW,292,0.0,0.0,98,0.00,,,0.00,meteobridge,2014-09-21 06:31:00,
2014-09-21 02:36:00,53.2,52.7,29.91,WNW,292,0.0,0.0,98,0.00,,,0.00,meteobridge,2014-09-21 06:36:00,
2014-09-21 02:41:00,53.1,52.5,29.91,WNW,292,0.0,0.0,98,0.00,,,0.00,meteobridge,2014-09-21 06:41:00,
2014-09-21 02:46:00,52.3,51.8,29.91,WNW,292,0.0,0.0,98,0.00,,,0.00,meteobridge,2014-09-21 06:46:00,
2014-09-21 02:51:00,51.8,51.3,29.91,WNW,292,0.0,0.0,98,0.00,,,0.00,meteobridge,2014-09-21 06:51:00,
2014-09-21 02:56:00,51.6,51.1,29.91,WNW,292,0.0,0.0,98,0.00,,,0.00,meteobridge,2014-09-21 06:56:00,
2014-09-21 03:01:00,51.3,50.7,29.91,WNW,292,0.0,0.0,98,0.00,,,0.00,meteobridge,2014-09-21 07:01:00,
2014-09-21 03:06:00,51.1,50.5,29.91,WNW,292,0.0,0.0,98,0.00,,,0.00,meteobridge,2014-09-21 07:06:00,
2014-09-21 03:11:00,50.7,50.2,29.91,WNW,292,0.0,0.0,98,0.00,,,0.00,meteobridge,2014-09-21 07:11:00,
2014-09-21 03:16:00,50.4,49.8,29.91,WNW,292,0.0,0.0,98,0.00,,,0.00,meteobridge,2014-09-21 07:16:00,
2014-09-21 03:21:00,50.5,50.0,29.91,WNW,292,0.0,0.0,98,0.00,,,0.00,meteobridge,2014-09-21 07:21:00,
2014-09-21 03:26:00,50.5,50.0,29.91,WNW,292,0.0,0.0,98,0.00,,,0.00,meteobridge,2014-09-21 07:26:00,
2014-09-21 03:31:00,50.7,50.2,29.91,WNW,292,0.0,0.0,98,0.00,,,0.00,meteobridge,2014-09-21 07:31:00,
2014-09-21 03:36:00,50.9,50.4,29.91,WNW,292,0.0,0.0,98,0.00,,,0.00,meteobridge,2014-09-21 07:36:00,
2014-09-21 03:41:00,51.1,50.5,29.91,WNW,292,0.0,0.0,98,0.00,,,0.00,meteobridge,2014-09-21 07:41:00,
2014-09-21 03:46:00,51.1,50.5,29.91,WNW,292,0.0,0.0,98,0.00,,,0.00,meteobridge,2014-09-21 07:46:00,
2014-09-21 03:51:00,51.3,50.7,29.91,WNW,292,0.0,0.0,98,0.00,,,0.00,meteobridge,2014-09-21 07:51:00,
2014-09-21 03:56:00,51.6,51.1,29.91,WNW,292,0.0,0.0,98,0.00,,,0.00,meteobridge,2014-09-21 07:56:00,
2014-09-21 04:01:00,52.0,51.4,29.91,WNW,292,0.0,0.0,98,0.00,,,0.00,meteobridge,2014-09-21 08:01:00,
2014-09-21 04:06:00,52.3,51.8,29.91,WNW,292,0.0,0.0,98,0.00,,,0.00,meteobridge,2014-09-21 08:06:00,
2014-09-21 04:11:00,52.7,52.2,29.91,WNW,292,0.0,0.0,98,0.00,,,0.00,meteobridge,2014-09-21 08:11:00,
2014-09-21 04:16:00,52.7,52.2,29.88,WNW,292,0.0,0.0,98,0.00,,,0.00,meteobridge,2014-09-21 08:16:00,
2014-09-21 04:21:00,52.9,52.3,29.88,WNW,292,0.0,0.0,98,0.00,,,0.00,meteobridge,2014-09-21 08:21:00,
2014-09-21 04:26:00,53.1,52.5,29.88,WNW,292,0.0,0.0,98,0.00,,,0.00,meteobridge,2014-09-21 08:26:00,
2014-09-21 04:31:00,53.1,52.5,29.88,WNW,292,0.0,0.0,98,0.00,,,0.00,meteobridge,2014-09-21 08:31:00,
2014-09-21 04:37:00,53.2,52.7,29.88,WNW,292,0.0,0.0,98,0.00,,,0.00,meteobridge,2014-09-21 08:37:00,
2014-09-21 04:42:00,53.4,52.9,29.88,WNW,292,0.0,0.0,98,0.00,,,0.00,meteobridge,2014-09-21 08:42:00,
2014-09-21 04:47:00,53.6,53.1,29.88,WNW,292,0.0,0.0,98,0.00,,,0.00,meteobridge,2014-09-21 08:47:00,
2014-09-21 04:52:00,54.0,53.4,29.88,WNW,292,0.0,0.0,98,0.00,,,0.00,meteobridge,2014-09-21 08:52:00,
2014-09-21 04:57:00,54.1,53.6,29.88,WNW,292,0.0,0.0,98,0.00,,,0.00,meteobridge,2014-09-21 08:57:00,
2014-09-21 05:02:00,54.1,53.6,29.85,WNW,292,0.0,0.0,98,0.00,,,0.00,meteobridge,2014-09-21 09:02:00,
2014-09-21 05:07:00,54.3,53.8,29.85,WNW,292,0.0,0.0,98,0.00,,,0.00,meteobridge,2014-09-21 09:07:00,
2014-09-21 05:12:00,54.3,53.8,29.85,WNW,292,0.0,0.0,98,0.00,,,0.00,meteobridge,2014-09-21 09:12:00,
2014-09-21 05:18:00,54.5,54.0,29.85,WNW,292,0.0,0.0,98,0.00,,,0.00,meteobridge,2014-09-21 09:18:00,
2014-09-21 05:23:00,54.5,54.0,29.85,WNW,292,0.0,0.0,98,0.00,,,0.00,meteobridge,2014-09-21 09:23:00,
2014-09-21 05:28:00,54.3,53.8,29.85,WNW,292,0.0,0.0,98,0.00,,,0.00,meteobridge,2014-09-21 09:28:00,
2014-09-21 05:33:00,54.3,53.8,29.83,WNW,292,0.0,0.0,98,0.00,,,0.00,meteobridge,2014-09-21 09:33:00,
2014-09-21 05:38:00,54.5,54.0,29.83,WNW,292,0.0,0.0,98,0.00,,,0.00,meteobridge,2014-09-21 09:38:00,
2014-09-21 05:43:00,54.9,54.3,29.83,NNW,338,2.5,2.7,98,0.00,,,0.00,meteobridge,2014-09-21 09:43:00,
2014-09-21 05:48:00,55.0,54.5,29.85,NNW,338,0.0,2.5,98,0.00,,,0.00,meteobridge,2014-09-21 09:48:00,
2014-09-21 05:53:00,55.2,54.7,29.85,WNW,292,0.0,0.0,98,0.00,,,0.00,meteobridge,2014-09-21 09:53:00,
2014-09-21 05:58:00,55.4,54.9,29.85,NNW,338,0.0,0.0,98,0.00,,,0.00,meteobridge,2014-09-21 09:58:00,
2014-09-21 06:03:00,55.4,54.9,29.85,NNW,338,0.0,0.0,98,0.00,,,0.00,meteobridge,2014-09-21 10:03:00,
2014-09-21 06:08:00,55.4,54.9,29.85,NNW,338,0.0,0.0,98,0.00,,,0.00,meteobridge,2014-09-21 10:08:00,
2014-09-21 06:13:00,55.6,55.0,29.85,NNW,338,0.0,0.0,98,0.00,,,0.00,meteobridge,2014-09-21 10:13:00,
2014-09-21 06:18:00,55.6,55.0,29.85,NNW,338,0.0,0.0,98,0.00,,,0.00,meteobridge,2014-09-21 10:18:00,
2014-09-21 06:23:00,55.9,55.4,29.85,NNW,338,0.0,0.0,98,0.00,,,0.00,meteobridge,2014-09-21 10:23:00,
2014-09-21 06:29:00,55.9,55.4,29.85,NNW,338,0.0,1.3,98,0.00,,,0.00,meteobridge,2014-09-21 10:29:00,
2014-09-21 06:34:00,55.9,55.4,29.85,NNW,338,0.0,0.0,98,0.00,,,0.00,meteobridge,2014-09-21 10:34:00,
2014-09-21 06:39:00,55.9,55.4,29.85,NNW,338,0.0,0.0,98,0.00,,,0.00,meteobridge,2014-09-21 10:39:00,
2014-09-21 06:40:00,55.9,55.4,29.85,NNW,338,0.0,0.0,98,0.00,,,0.00,meteobridge,2014-09-21 10:40:00,
2014-09-21 06:45:00,56.3,55.8,29.85,NNW,338,0.0,0.0,98,0.04,,,0.00,meteobridge,2014-09-21 10:45:00,
2014-09-21 06:46:00,56.3,55.8,29.85,NNW,338,0.0,0.0,98,0.04,,,0.00,meteobridge,2014-09-21 10:46:00,
2014-09-21 06:51:00,56.5,55.9,29.85,NNW,338,0.0,0.0,98,0.04,,,0.00,meteobridge,2014-09-21 10:51:00,
2014-09-21 06:56:00,56.7,56.1,29.85,NNW,338,0.0,0.0,98,0.08,,,0.04,meteobridge,2014-09-21 10:56:00,
2014-09-21 07:01:00,57.0,56.5,29.85,ESE,112,1.3,2.9,98,0.08,,,0.09,meteobridge,2014-09-21 11:01:00,
2014-09-21 07:06:00,57.0,56.5,29.85,ESE,112,0.0,0.0,98,0.13,,,0.09,meteobridge,2014-09-21 11:06:00,
2014-09-21 07:11:00,57.2,56.7,29.85,ESE,112,0.0,0.0,98,0.13,,,0.09,meteobridge,2014-09-21 11:11:00,
2014-09-21 07:16:00,57.6,57.0,29.85,ESE,112,0.0,0.0,98,0.13,,,0.09,meteobridge,2014-09-21 11:16:00,
2014-09-21 07:22:00,57.9,57.4,29.85,ESE,112,0.0,0.0,98,0.13,,,0.09,meteobridge,2014-09-21 11:22:00,
2014-09-21 07:27:00,58.1,57.6,29.85,ESE,112,0.0,0.0,98,0.13,,,0.09,meteobridge,2014-09-21 11:27:00,
2014-09-21 07:32:00,58.1,57.6,29.85,ESE,112,0.0,0.0,98,0.17,,,0.13,meteobridge,2014-09-21 11:32:00,
2014-09-21 07:37:00,58.1,57.6,29.85,ESE,112,0.0,0.0,98,0.17,,,0.13,meteobridge,2014-09-21 11:37:00,
2014-09-21 07:42:00,58.3,57.7,29.85,ESE,112,0.0,0.0,98,0.21,,,0.17,meteobridge,2014-09-21 11:42:00,
2014-09-21 07:47:00,58.5,57.9,29.85,ESE,112,1.1,1.1,98,0.21,,,0.21,meteobridge,2014-09-21 11:47:00,
2014-09-21 07:52:00,58.6,58.1,29.85,ESE,112,0.0,2.0,98,0.21,,,0.21,meteobridge,2014-09-21 11:52:00,
2014-09-21 07:57:00,59.0,58.5,29.85,ESE,112,1.3,2.7,98,0.21,,,0.25,meteobridge,2014-09-21 11:57:00,
2014-09-21 08:02:00,59.2,58.6,29.85,NNW,338,0.0,0.0,98,0.16,,,0.25,meteobridge,2014-09-21 12:02:00,
2014-09-21 08:07:00,59.4,58.8,29.85,WSW,248,1.6,2.7,98,0.20,,,0.29,meteobridge,2014-09-21 12:07:00,
2014-09-21 08:12:00,59.9,59.4,29.85,SSE,158,2.7,4.0,98,0.20,,,0.29,meteobridge,2014-09-21 12:12:00,
2014-09-21 08:17:00,60.4,59.9,29.85,ENE,68,0.0,3.1,98,0.20,,,0.29,meteobridge,2014-09-21 12:17:00,
2014-09-21 08:22:00,61.3,60.8,29.85,West,270,5.4,5.6,98,0.24,,,0.33,meteobridge,2014-09-21 12:22:00,
2014-09-21 08:27:00,61.9,61.3,29.85,WSW,248,2.7,6.9,98,0.24,,,0.37,meteobridge,2014-09-21 12:27:00,
2014-09-21 08:32:00,62.2,61.7,29.88,SSW,202,2.7,3.8,98,0.24,,,0.37,meteobridge,2014-09-21 12:32:00,
2014-09-21 08:37:00,62.4,61.9,29.88,SW,225,2.2,4.9,98,0.20,,,0.37,meteobridge,2014-09-21 12:37:00,
2014-09-21 08:42:00,62.6,62.1,29.88,SSW,202,0.0,0.9,98,0.16,,,0.37,meteobridge,2014-09-21 12:42:00,
2014-09-21 08:48:00,63.0,62.4,29.85,WSW,248,2.5,3.1,98,0.16,,,0.37,meteobridge,2014-09-21 12:48:00,
2014-09-21 08:53:00,63.1,62.6,29.85,SSE,158,1.3,3.8,98,0.16,,,0.37,meteobridge,2014-09-21 12:53:00,
2014-09-21 08:58:00,63.5,63.0,29.85,SSW,202,2.0,4.3,98,0.12,,,0.37,meteobridge,2014-09-21 12:58:00,
2014-09-21 09:03:00,64.2,63.7,29.83,ESE,112,2.7,2.7,98,0.08,,,0.37,meteobridge,2014-09-21 13:03:00,
2014-09-21 09:08:00,64.4,63.9,29.83,ENE,68,0.0,1.3,98,0.08,,,0.37,meteobridge,2014-09-21 13:08:00,
2014-09-21 09:13:00,65.1,64.6,29.83,ESE,112,0.0,0.9,98,0.08,,,0.37,meteobridge,2014-09-21 13:13:00,
2014-09-21 09:18:00,64.8,64.2,29.83,SW,225,1.6,3.4,98,0.08,,,0.37,meteobridge,2014-09-21 13:18:00,
2014-09-21 09:23:00,64.6,64.0,29.83,SW,225,1.6,3.1,98,0.00,,,0.37,meteobridge,2014-09-21 13:23:00,
2014-09-21 09:28:00,64.8,64.2,29.83,West,270,1.6,1.6,98,0.00,,,0.37,meteobridge,2014-09-21 13:28:00,
2014-09-21 09:33:00,65.5,64.9,29.83,SSW,202,0.0,0.0,98,0.00,,,0.37,meteobridge,2014-09-21 13:33:00,
2014-09-21 09:38:00,65.8,65.3,29.83,SSE,158,2.0,2.7,98,0.00,,,0.37,meteobridge,2014-09-21 13:38:00,
2014-09-21 09:43:00,66.4,65.8,29.83,SSE,158,1.3,1.6,98,0.00,,,0.37,meteobridge,2014-09-21 13:43:00,
2014-09-21 09:49:00,67.3,66.7,29.83,West,270,1.6,1.6,98,0.00,,,0.37,meteobridge,2014-09-21 13:49:00,
2014-09-21 09:54:00,67.5,66.9,29.83,WSW,248,2.0,3.1,98,0.00,,,0.37,meteobridge,2014-09-21 13:54:00,
2014-09-21 09:59:00,67.6,67.1,29.83,WSW,248,0.0,1.1,98,0.00,,,0.37,meteobridge,2014-09-21 13:59:00,
2014-09-21 10:04:00,67.6,67.1,29.83,South,180,0.0,0.9,98,0.00,,,0.37,meteobridge,2014-09-21 14:04:00,
2014-09-21 10:09:00,67.6,67.1,29.83,WSW,248,3.6,3.8,98,0.00,,,0.37,meteobridge,2014-09-21 14:09:00,
2014-09-21 10:14:00,67.8,67.3,29.83,WSW,248,3.1,4.9,98,0.00,,,0.37,meteobridge,2014-09-21 14:14:00,
2014-09-21 10:19:00,67.6,66.7,29.83,WSW,248,4.3,4.3,97,0.00,,,0.37,meteobridge,2014-09-21 14:19:00,
2014-09-21 10:24:00,67.5,66.6,29.83,WSW,248,4.0,4.3,97,0.00,,,0.37,meteobridge,2014-09-21 14:24:00,
2014-09-21 10:29:00,67.6,66.7,29.83,WSW,248,3.6,3.8,97,0.00,,,0.37,meteobridge,2014-09-21 14:29:00,
2014-09-21 10:34:00,67.5,66.6,29.83,SW,225,1.3,3.8,97,0.00,,,0.37,meteobridge,2014-09-21 14:34:00,